Weather Roundup
Issued by NWS Chicago, IL

Home | Current Version | Previous Version | Graphics & Text | Print | Product List | Glossary On
Versions: 1 2 3 4 5 6 7 8 9 10 11 12 13 14 15 16 17 18 19 20 21 22 23 24 25 26 27 28 29 30 31 32 33 34 35 36 37 38 39 40 41 42 43 44 45 46 47 48 49 50
000
NZUS59 KLOT 260106
HRRLOT

CHICAGO AREA WEATHER ROUNDUP
NATIONAL WEATHER SERVICE CHICAGO/ROMEOVILLE IL
700 PM CST SUN JAN 25 2015

NOTE: "FAIR" INDICATES FEW OR NO CLOUDS BELOW 12,000 FEET WITH NO
SIGNIFICANT WEATHER AND/OR OBSTRUCTIONS TO VISIBILITY.

* THESE STATIONS ARE NOT UNDER NWS QUALITY CONTROL. THEY ALSO MAY NOT
  REPORT WEATHER SUCH AS PRECIPITATION OR FOG.

ILZ005-006-012>014-019>023-260200-
NORTHEAST ILLINOIS

CITY           SKY/WX    TMP DP  RH WIND       PRES   REMARKS
OHARE          MOCLDY    25  16  68 NE9       29.95R WCI  15
MIDWAY         CLOUDY    29  19  66 NE16      29.95R WCI  17
AURORA         CLOUDY    26  16  65 NE15      29.96R WCI  14
LANSING*       CLOUDY    27  22  80 NE17G23   29.94R WCI  14
JOLIET*        CLOUDY    27  19  69 NE14G22   29.95R WCI  16
WAUKEGAN       CLEAR     24  14  65 N10G20    29.97S WCI  14
DUPAGE AIRPORT CLOUDY    24  16  71 N13G22    29.95R WCI  12
WHEELING       CLEAR     25  15  66 N10G18    29.98S WCI  15
KANKAKEE*      CLOUDY    28  24  86 N16G22    29.92R WCI  16
MORRIS*        CLOUDY    28  22  79 N9G20     29.95R WCI  19
LEWIS AIRPORT* CLOUDY    28  19  70 NE20G28   29.94R WCI  14
NORTHERLY IS     N/A     28  20  71 NE20        N/A  WCI  15
$$

WIZ051-052-058>065-066-070>072-260200-
SOUTHEAST WISCONSIN

CITY           SKY/WX    TMP DP  RH WIND       PRES   REMARKS
MILWAUKEE      MOCLDY    25  13  60 NE15G24   30.01R WCI  13
KENOSHA*       CLEAR     23  15  71 N9        29.99R WCI  13
RACINE*        PTCLDY    25  14  63 NE14      30.01R WCI  13
BURLINGTON     CLEAR     18  11  74 N6        30.00R WCI  10
WAUKESHA       CLEAR     18  10  73 NE12      30.02R WCI   5
WEST BEND      CLEAR     19  12  73 N7        30.03R WCI  10
$$

INZ001>003-010>013-019-020-260200-
NORTHWEST INDIANA

CITY           SKY/WX    TMP DP  RH WIND       PRES   REMARKS
GARY*          NOT AVBL
MICHIGAN CITY* NOT AVBL
RENSSELAER*    NOT AVBL
VALPARAISO     FLURRIES  25  20  81 NE8G17    29.93R WCI  16
$$

LMZ740>746-260200-
SOUTHERN LAKE MICHIGAN

STATION/POSITION TIME  SKY/WX   TEMP WIND        PRES    VSBY
                                AIR  DIR/SP/G
                 (UTC)          (F)  (DEG/KT/KT) (MB)    (MI)
HARRISON CRIB    0100            27   30/ 20/ 25   N/A
BURNHAM HARBOR   0100            28   20/ 17/ 21   N/A
CALUMET HARBOR   0100            27   10/ 16/ 21   N/A
BURNS HARBOR     NOT AVBL
MICHIGAN CITY    0100            26   20/ 17/ 21   N/A
$$

ABBREVIATIONS USED IN REMARKS
   TC - TEMPERATURE IN CELSIUS
  WCI - WIND CHILL INDEX
   HX - HEAT INDEX
  VSB - VISIBILITY
$$



USA.gov is the U.S. government's official web portal to all federal, state and local government web resources and services.